Year,Month,Day,Hour,Minute,Value (Times are PST for windspeed in km/hr)
2008,12,29,00,00,1.40
2008,12,29,00,01,1.40
2008,12,29,00,02,0.60
2008,12,29,00,03,0.00
2008,12,29,00,04,0.00
2008,12,29,00,05,0.00
2008,12,29,00,06,0.00
2008,12,29,00,07,0.00
2008,12,29,00,08,0.00
2008,12,29,00,09,0.00
2008,12,29,00,10,0.00
2008,12,29,00,11,0.20
2008,12,29,00,12,0.00
2008,12,29,00,13,0.00
2008,12,29,00,14,0.20
2008,12,29,00,15,0.00
2008,12,29,00,16,0.00
2008,12,29,00,17,0.00
2008,12,29,00,18,0.00
2008,12,29,00,19,0.00
2008,12,29,00,20,0.00
2008,12,29,00,21,0.00
2008,12,29,00,22,0.00
2008,12,29,00,23,0.00
2008,12,29,00,24,0.00
2008,12,29,00,25,0.50
2008,12,29,00,26,1.00
2008,12,29,00,27,0.00
2008,12,29,00,28,0.00
2008,12,29,00,29,0.20
2008,12,29,00,30,0.00
2008,12,29,00,31,0.00
2008,12,29,00,32,0.00
2008,12,29,00,33,0.00
2008,12,29,00,34,0.00
2008,12,29,00,35,0.00
2008,12,29,00,36,0.00
2008,12,29,00,37,0.00
2008,12,29,00,38,0.00
2008,12,29,00,39,0.00
2008,12,29,00,40,0.00
2008,12,29,00,41,0.00
2008,12,29,00,42,0.00
2008,12,29,00,43,0.00
2008,12,29,00,44,0.00
2008,12,29,00,45,0.00
2008,12,29,00,46,0.00
2008,12,29,00,47,0.70
2008,12,29,00,48,0.00
2008,12,29,00,49,0.00
2008,12,29,00,50,0.00
2008,12,29,00,51,0.00
2008,12,29,00,52,0.00
2008,12,29,00,53,0.00
2008,12,29,00,54,0.00
2008,12,29,00,55,0.00
2008,12,29,00,56,0.00
2008,12,29,00,57,0.80
2008,12,29,00,58,2.50
2008,12,29,00,59,2.60
2008,12,29,01,00,1.90
2008,12,29,01,01,0.50
2008,12,29,01,02,1.10
2008,12,29,01,03,1.90
2008,12,29,01,04,2.30
2008,12,29,01,05,0.70
2008,12,29,01,06,0.00
2008,12,29,01,07,1.40
2008,12,29,01,08,2.60
2008,12,29,01,09,3.40
2008,12,29,01,10,0.70
2008,12,29,01,11,0.00
2008,12,29,01,12,0.00
2008,12,29,01,13,0.10
2008,12,29,01,14,0.00
2008,12,29,01,15,0.00
2008,12,29,01,16,0.00
2008,12,29,01,17,0.50
2008,12,29,01,18,1.80
2008,12,29,01,19,1.70
2008,12,29,01,20,1.00
2008,12,29,01,21,0.00
2008,12,29,01,22,0.00
2008,12,29,01,23,0.00
2008,12,29,01,24,0.60
2008,12,29,01,25,2.50
2008,12,29,01,26,1.80
2008,12,29,01,27,0.70
2008,12,29,01,28,0.30
2008,12,29,01,29,2.60
2008,12,29,01,30,2.50
2008,12,29,01,31,2.90
2008,12,29,01,32,2.30
2008,12,29,01,33,1.40
2008,12,29,01,34,0.00
2008,12,29,01,35,0.10
2008,12,29,01,36,0.00
2008,12,29,01,37,0.00
2008,12,29,01,38,0.00
2008,12,29,01,39,0.00
2008,12,29,01,40,0.00
2008,12,29,01,41,0.00
2008,12,29,01,42,0.00
2008,12,29,01,43,0.00
2008,12,29,01,44,0.00
2008,12,29,01,45,0.00
2008,12,29,01,46,0.00
2008,12,29,01,47,0.00
2008,12,29,01,48,0.00
2008,12,29,01,49,0.00
2008,12,29,01,50,0.00
2008,12,29,01,51,0.00
2008,12,29,01,52,0.00
2008,12,29,01,53,0.00
2008,12,29,01,54,0.00
2008,12,29,01,55,0.00
2008,12,29,01,56,0.00
2008,12,29,01,57,0.00
2008,12,29,01,58,0.10
2008,12,29,01,59,0.20
2008,12,29,02,00,1.00
2008,12,29,02,01,0.30
2008,12,29,02,02,0.00
2008,12,29,02,03,0.00
2008,12,29,02,04,0.00
2008,12,29,02,05,0.00
2008,12,29,02,06,0.00
2008,12,29,02,07,0.00
2008,12,29,02,08,0.00
2008,12,29,02,09,0.00
2008,12,29,02,10,0.00
2008,12,29,02,11,0.00
2008,12,29,02,12,0.00
2008,12,29,02,13,0.00
2008,12,29,02,14,0.00
2008,12,29,02,15,0.00
2008,12,29,02,16,0.70
2008,12,29,02,17,3.10
2008,12,29,02,18,3.00
2008,12,29,02,19,4.00
2008,12,29,02,20,3.70
2008,12,29,02,21,4.30
2008,12,29,02,22,3.10
2008,12,29,02,23,1.20
2008,12,29,02,24,0.40
2008,12,29,02,25,0.60
2008,12,29,02,26,0.10
2008,12,29,02,27,0.10
2008,12,29,02,28,1.20
2008,12,29,02,29,0.20
2008,12,29,02,30,3.10
2008,12,29,02,31,2.20
2008,12,29,02,32,3.20
2008,12,29,02,33,3.40
2008,12,29,02,34,4.10
2008,12,29,02,35,1.00
2008,12,29,02,36,0.20
2008,12,29,02,37,0.00
2008,12,29,02,38,0.00
2008,12,29,02,39,1.80
2008,12,29,02,40,3.00
2008,12,29,02,41,3.50
2008,12,29,02,42,2.70
2008,12,29,02,43,2.10
2008,12,29,02,44,3.40
2008,12,29,02,45,4.40
2008,12,29,02,46,4.00
2008,12,29,02,47,5.60
2008,12,29,02,48,4.70
2008,12,29,02,49,4.90
2008,12,29,02,50,3.30
2008,12,29,02,51,3.10
2008,12,29,02,52,3.20
2008,12,29,02,53,2.70
2008,12,29,02,54,3.80
2008,12,29,02,55,2.10
2008,12,29,02,56,4.70
2008,12,29,02,57,5.00
2008,12,29,02,58,3.00
2008,12,29,02,59,1.70
2008,12,29,03,00,4.90
2008,12,29,03,01,5.90
2008,12,29,03,02,3.90
2008,12,29,03,03,3.40
2008,12,29,03,04,2.90
2008,12,29,03,05,3.40
2008,12,29,03,06,4.50
2008,12,29,03,07,1.70
2008,12,29,03,08,1.40
2008,12,29,03,09,1.90
2008,12,29,03,10,1.60
2008,12,29,03,11,0.00
2008,12,29,03,12,0.20
2008,12,29,03,13,0.00
2008,12,29,03,14,0.00
2008,12,29,03,15,0.00
2008,12,29,03,16,0.00
2008,12,29,03,17,0.00
2008,12,29,03,18,0.00
2008,12,29,03,19,2.80
2008,12,29,03,20,3.00
2008,12,29,03,21,0.70
2008,12,29,03,22,0.00
2008,12,29,03,23,0.00
2008,12,29,03,24,0.00
2008,12,29,03,25,3.40
2008,12,29,03,26,1.90
2008,12,29,03,27,0.00
2008,12,29,03,28,0.00
2008,12,29,03,29,0.10
2008,12,29,03,30,0.00
2008,12,29,03,31,0.10
2008,12,29,03,32,0.10
2008,12,29,03,33,2.60
2008,12,29,03,34,0.00
2008,12,29,03,35,0.10
2008,12,29,03,36,0.00
2008,12,29,03,37,2.80
2008,12,29,03,38,2.80
2008,12,29,03,39,0.70
2008,12,29,03,40,0.00
2008,12,29,03,41,0.00
2008,12,29,03,42,0.00
2008,12,29,03,43,0.00
2008,12,29,03,44,0.00
2008,12,29,03,45,0.00
2008,12,29,03,46,0.00
2008,12,29,03,47,0.00
2008,12,29,03,48,0.40
2008,12,29,03,49,0.00
2008,12,29,03,50,0.00
2008,12,29,03,51,0.00
2008,12,29,03,52,0.00
2008,12,29,03,53,0.00
2008,12,29,03,54,0.00
2008,12,29,03,55,0.10
2008,12,29,03,56,1.10
2008,12,29,03,57,3.90
2008,12,29,03,58,2.90
2008,12,29,03,59,2.90
2008,12,29,04,00,3.20
2008,12,29,04,01,1.70
2008,12,29,04,02,0.70
2008,12,29,04,03,3.10
2008,12,29,04,04,5.60
2008,12,29,04,05,4.20
2008,12,29,04,06,2.00
2008,12,29,04,07,2.70
2008,12,29,04,08,3.00
2008,12,29,04,09,0.30
2008,12,29,04,10,7.50
2008,12,29,04,11,3.20
2008,12,29,04,12,2.30
2008,12,29,04,13,6.00
2008,12,29,04,14,5.20
2008,12,29,04,15,6.70
2008,12,29,04,16,6.00
2008,12,29,04,17,6.10
2008,12,29,04,18,3.40
2008,12,29,04,19,4.10
2008,12,29,04,20,6.00
2008,12,29,04,21,5.00
2008,12,29,04,22,4.40
2008,12,29,04,23,2.00
2008,12,29,04,24,5.60
2008,12,29,04,25,2.00
2008,12,29,04,26,5.30
2008,12,29,04,27,7.00
2008,12,29,04,28,1.80
2008,12,29,04,29,1.40
2008,12,29,04,30,0.10
2008,12,29,04,31,1.30
2008,12,29,04,32,0.20
2008,12,29,04,33,3.90
2008,12,29,04,34,1.30
2008,12,29,04,35,0.40
2008,12,29,04,36,0.00
2008,12,29,04,37,0.30
2008,12,29,04,38,1.40
2008,12,29,04,39,1.40
2008,12,29,04,40,0.00
2008,12,29,04,41,0.00
2008,12,29,04,42,0.90
2008,12,29,04,43,0.70
2008,12,29,04,44,1.50
2008,12,29,04,45,0.50
2008,12,29,04,46,0.30
2008,12,29,04,47,0.50
2008,12,29,04,48,0.00
2008,12,29,04,49,0.90
2008,12,29,04,50,4.30
2008,12,29,04,51,2.40
2008,12,29,04,52,1.50
2008,12,29,04,53,0.40
2008,12,29,04,54,0.00
2008,12,29,04,55,1.00
2008,12,29,04,56,0.20
2008,12,29,04,57,0.90
2008,12,29,04,58,0.90
2008,12,29,04,59,0.00
2008,12,29,05,00,0.60
2008,12,29,05,01,1.80
2008,12,29,05,02,0.40
2008,12,29,05,03,0.30
2008,12,29,05,04,0.00
2008,12,29,05,05,0.00
2008,12,29,05,06,0.20
2008,12,29,05,07,0.20
2008,12,29,05,08,0.00
2008,12,29,05,09,0.50
2008,12,29,05,10,0.00
2008,12,29,05,11,0.50
2008,12,29,05,12,0.30
2008,12,29,05,13,0.30
2008,12,29,05,14,0.00
2008,12,29,05,15,0.10
2008,12,29,05,16,0.40
2008,12,29,05,17,0.00
2008,12,29,05,18,0.00
2008,12,29,05,19,0.00
2008,12,29,05,20,0.00
2008,12,29,05,21,0.00
2008,12,29,05,22,0.00
2008,12,29,05,23,0.00
2008,12,29,05,24,0.00
2008,12,29,05,25,0.00
2008,12,29,05,26,0.00
2008,12,29,05,27,0.00
2008,12,29,05,28,0.00
2008,12,29,05,29,0.00
2008,12,29,05,30,0.00
2008,12,29,05,31,0.00
2008,12,29,05,32,0.00
2008,12,29,05,33,0.00
2008,12,29,05,34,0.00
2008,12,29,05,35,0.00
2008,12,29,05,36,0.00
2008,12,29,05,37,0.00
2008,12,29,05,38,0.00
2008,12,29,05,39,0.00
2008,12,29,05,40,0.00
2008,12,29,05,41,0.00
2008,12,29,05,42,0.10
2008,12,29,05,43,0.00
2008,12,29,05,44,0.00
2008,12,29,05,45,0.00
2008,12,29,05,46,0.00
2008,12,29,05,47,0.00
2008,12,29,05,48,0.00
2008,12,29,05,49,0.90
2008,12,29,05,50,1.50
2008,12,29,05,51,0.00
2008,12,29,05,52,0.10
2008,12,29,05,53,1.80
2008,12,29,05,54,0.90
2008,12,29,05,55,0.90
2008,12,29,05,56,1.50
2008,12,29,05,57,1.40
2008,12,29,05,58,1.90
2008,12,29,05,59,0.80
2008,12,29,06,00,0.70
2008,12,29,06,01,0.20
2008,12,29,06,02,0.00
2008,12,29,06,03,0.00
2008,12,29,06,04,0.60
2008,12,29,06,05,0.00
2008,12,29,06,06,2.20
2008,12,29,06,07,1.40
2008,12,29,06,08,1.50
2008,12,29,06,09,0.50
2008,12,29,06,10,0.20
2008,12,29,06,11,1.60
2008,12,29,06,12,2.50
2008,12,29,06,13,3.00
2008,12,29,06,14,2.30
2008,12,29,06,15,3.20
2008,12,29,06,16,2.40
2008,12,29,06,17,1.00
2008,12,29,06,18,4.20
2008,12,29,06,19,6.40
2008,12,29,06,20,5.90
2008,12,29,06,21,6.10
2008,12,29,06,22,6.30
2008,12,29,06,23,7.20
2008,12,29,06,24,3.70
2008,12,29,06,25,3.00
2008,12,29,06,26,5.10
2008,12,29,06,27,4.30
2008,12,29,06,28,6.50
2008,12,29,06,29,4.00
2008,12,29,06,30,5.00
2008,12,29,06,31,4.10
2008,12,29,06,32,3.30
2008,12,29,06,33,2.70
2008,12,29,06,34,4.70
2008,12,29,06,35,4.50
2008,12,29,06,36,4.10
2008,12,29,06,37,4.30
2008,12,29,06,38,6.60
2008,12,29,06,39,4.40
2008,12,29,06,40,5.40
2008,12,29,06,41,2.40
2008,12,29,06,42,1.90
2008,12,29,06,43,2.30
2008,12,29,06,44,3.70
2008,12,29,06,45,4.40
2008,12,29,06,46,3.10
2008,12,29,06,47,3.30
2008,12,29,06,48,4.10
2008,12,29,06,49,3.60
2008,12,29,06,50,3.20
2008,12,29,06,51,2.70
2008,12,29,06,52,3.40
2008,12,29,06,53,3.90
2008,12,29,06,54,3.00
2008,12,29,06,55,4.90
2008,12,29,06,56,3.50
2008,12,29,06,57,3.30
2008,12,29,06,58,5.60
2008,12,29,06,59,5.70
2008,12,29,07,00,6.40
2008,12,29,07,01,4.40
2008,12,29,07,02,5.30
2008,12,29,07,03,4.90
2008,12,29,07,04,4.30
2008,12,29,07,05,3.70
2008,12,29,07,06,4.10
2008,12,29,07,07,4.10
2008,12,29,07,08,3.50
2008,12,29,07,09,2.50
2008,12,29,07,10,2.50
2008,12,29,07,11,3.90
2008,12,29,07,12,7.10
2008,12,29,07,13,7.40
2008,12,29,07,14,6.10
2008,12,29,07,15,5.50
2008,12,29,07,16,6.50
2008,12,29,07,17,4.80
2008,12,29,07,18,4.70
2008,12,29,07,19,7.30
2008,12,29,07,20,5.90
2008,12,29,07,21,6.80
2008,12,29,07,22,6.20
2008,12,29,07,23,5.90
2008,12,29,07,24,6.10
2008,12,29,07,25,5.70
2008,12,29,07,26,3.50
2008,12,29,07,27,7.30
2008,12,29,07,28,11.00
2008,12,29,07,29,8.00
2008,12,29,07,30,7.30
2008,12,29,07,31,4.60
2008,12,29,07,32,5.70
2008,12,29,07,33,7.70
2008,12,29,07,34,6.60
2008,12,29,07,35,4.90
2008,12,29,07,36,4.20
2008,12,29,07,37,4.70
2008,12,29,07,38,2.60
2008,12,29,07,39,5.80
2008,12,29,07,40,3.40
2008,12,29,07,41,3.70
2008,12,29,07,42,5.10
2008,12,29,07,43,4.70
2008,12,29,07,44,4.50
2008,12,29,07,45,4.80
2008,12,29,07,46,4.70
2008,12,29,07,47,5.80
2008,12,29,07,48,4.20
2008,12,29,07,49,4.20
2008,12,29,07,50,5.00
2008,12,29,07,51,6.40
2008,12,29,07,52,6.40
2008,12,29,07,53,5.70
2008,12,29,07,54,5.30
2008,12,29,07,55,5.20
2008,12,29,07,56,5.80
2008,12,29,07,57,5.90
2008,12,29,07,58,3.90
2008,12,29,07,59,2.50
2008,12,29,08,00,3.50
2008,12,29,08,01,4.20
2008,12,29,08,02,4.30
2008,12,29,08,03,2.80
2008,12,29,08,04,2.10
2008,12,29,08,05,5.80
2008,12,29,08,06,5.00
2008,12,29,08,07,3.30
2008,12,29,08,08,1.00
2008,12,29,08,09,3.00
2008,12,29,08,10,3.90
2008,12,29,08,11,4.40
2008,12,29,08,12,0.90
2008,12,29,08,13,0.70
2008,12,29,08,14,4.30
2008,12,29,08,15,4.70
2008,12,29,08,16,1.20
2008,12,29,08,17,4.50
2008,12,29,08,18,3.80
2008,12,29,08,19,3.90
2008,12,29,08,20,2.20
2008,12,29,08,21,1.90
2008,12,29,08,22,1.70
2008,12,29,08,23,4.10
2008,12,29,08,24,5.20
2008,12,29,08,25,2.30
2008,12,29,08,26,2.90
2008,12,29,08,27,2.50
2008,12,29,08,28,0.60
2008,12,29,08,29,0.40
2008,12,29,08,30,3.10
2008,12,29,08,31,2.60
2008,12,29,08,32,0.30
2008,12,29,08,33,0.00
2008,12,29,08,34,0.00
2008,12,29,08,35,0.00
2008,12,29,08,36,0.00
2008,12,29,08,37,0.00
2008,12,29,08,38,0.00
2008,12,29,08,39,0.00
2008,12,29,08,40,0.00
2008,12,29,08,41,0.30
2008,12,29,08,42,0.00
2008,12,29,08,43,2.80
2008,12,29,08,44,2.60
2008,12,29,08,45,3.90
2008,12,29,08,46,5.60
2008,12,29,08,47,4.70
2008,12,29,08,48,3.90
2008,12,29,08,49,3.40
2008,12,29,08,50,1.80
2008,12,29,08,51,2.50
2008,12,29,08,52,2.40
2008,12,29,08,53,0.20
2008,12,29,08,54,0.80
2008,12,29,08,55,0.00
2008,12,29,08,56,0.00
2008,12,29,08,57,0.70
2008,12,29,08,58,2.90
2008,12,29,08,59,4.50
2008,12,29,09,00,1.80
2008,12,29,09,01,0.10
2008,12,29,09,02,0.00
2008,12,29,09,03,0.00
2008,12,29,09,04,0.00
2008,12,29,09,05,0.00
2008,12,29,09,06,2.30
2008,12,29,09,07,0.00
2008,12,29,09,08,0.10
2008,12,29,09,09,0.90
2008,12,29,09,10,0.00
2008,12,29,09,11,0.00
2008,12,29,09,12,1.50
2008,12,29,09,13,0.50
2008,12,29,09,14,0.40
2008,12,29,09,15,2.30
2008,12,29,09,16,1.90
2008,12,29,09,17,1.80
2008,12,29,09,18,2.90
2008,12,29,09,19,2.80
2008,12,29,09,20,0.90
2008,12,29,09,21,4.80
2008,12,29,09,22,2.50
2008,12,29,09,23,3.60
2008,12,29,09,24,4.50
2008,12,29,09,25,5.00
2008,12,29,09,26,1.10
2008,12,29,09,27,0.00
2008,12,29,09,28,0.40
2008,12,29,09,29,1.50
2008,12,29,09,30,3.30
2008,12,29,09,31,2.00
2008,12,29,09,32,0.10
2008,12,29,09,33,0.40
2008,12,29,09,34,0.10
2008,12,29,09,35,0.00
2008,12,29,09,36,0.00
2008,12,29,09,37,0.00
2008,12,29,09,38,0.00
2008,12,29,09,39,0.00
2008,12,29,09,40,0.00
2008,12,29,09,41,1.70
2008,12,29,09,42,0.10
2008,12,29,09,43,0.00
2008,12,29,09,44,0.90
2008,12,29,09,45,1.80
2008,12,29,09,46,1.50
2008,12,29,09,47,1.70
2008,12,29,09,48,0.20
2008,12,29,09,49,0.00
2008,12,29,09,50,0.00
2008,12,29,09,51,0.00
2008,12,29,09,52,0.10
2008,12,29,09,53,0.00
2008,12,29,09,54,0.00
2008,12,29,09,55,0.00
2008,12,29,09,56,0.00
2008,12,29,09,57,0.00
2008,12,29,09,58,0.00
2008,12,29,09,59,0.00
2008,12,29,10,00,0.00
2008,12,29,10,01,0.10
2008,12,29,10,02,0.10
2008,12,29,10,03,0.00
2008,12,29,10,04,0.00
2008,12,29,10,05,0.00
2008,12,29,10,06,0.00
2008,12,29,10,07,0.00
2008,12,29,10,08,0.10
2008,12,29,10,09,2.10
2008,12,29,10,10,1.00
2008,12,29,10,11,0.00
2008,12,29,10,12,0.00
2008,12,29,10,13,0.00
2008,12,29,10,14,0.00
2008,12,29,10,15,0.00
2008,12,29,10,16,0.00
2008,12,29,10,17,0.00
2008,12,29,10,18,0.00
2008,12,29,10,19,0.00
2008,12,29,10,20,0.00
2008,12,29,10,21,0.00
2008,12,29,10,22,0.00
2008,12,29,10,23,0.00
2008,12,29,10,24,0.00
2008,12,29,10,25,0.00
2008,12,29,10,26,0.00
2008,12,29,10,27,0.10
2008,12,29,10,28,0.00
2008,12,29,10,29,0.00
2008,12,29,10,30,0.00
2008,12,29,10,31,0.00
2008,12,29,10,32,0.40
2008,12,29,10,33,0.30
2008,12,29,10,34,2.40
2008,12,29,10,35,0.40
2008,12,29,10,36,0.20
2008,12,29,10,37,0.00
2008,12,29,10,38,0.00
2008,12,29,10,39,0.00
2008,12,29,10,40,0.00
2008,12,29,10,41,0.00
2008,12,29,10,42,0.00
2008,12,29,10,43,0.00
2008,12,29,10,44,0.00
2008,12,29,10,45,0.00
2008,12,29,10,46,0.00
2008,12,29,10,47,0.00
2008,12,29,10,48,0.00
2008,12,29,10,49,1.20
2008,12,29,10,50,0.30
2008,12,29,10,51,0.20
2008,12,29,10,52,0.10
2008,12,29,10,53,0.00
2008,12,29,10,54,0.10
2008,12,29,10,55,0.00
2008,12,29,10,56,0.00
2008,12,29,10,57,1.10
2008,12,29,10,58,2.90
2008,12,29,10,59,1.70
2008,12,29,11,00,0.00
2008,12,29,11,01,0.00
2008,12,29,11,02,0.00
2008,12,29,11,03,2.30
2008,12,29,11,04,4.00
2008,12,29,11,05,2.90
2008,12,29,11,06,2.40
2008,12,29,11,07,4.80
2008,12,29,11,08,4.10
2008,12,29,11,09,5.40
2008,12,29,11,10,5.30
2008,12,29,11,11,1.00
2008,12,29,11,12,0.10
2008,12,29,11,13,2.80
2008,12,29,11,14,8.40
2008,12,29,11,15,4.10
2008,12,29,11,16,4.10
2008,12,29,11,17,5.60
2008,12,29,11,18,2.50
2008,12,29,11,19,6.40
2008,12,29,11,20,3.90
2008,12,29,11,21,5.50
2008,12,29,11,22,11.00
2008,12,29,11,23,17.20
2008,12,29,11,24,17.90
2008,12,29,11,25,12.10
2008,12,29,11,26,18.50
2008,12,29,11,27,25.10
2008,12,29,11,28,23.00
2008,12,29,11,29,30.30
2008,12,29,11,30,16.90
2008,12,29,11,31,16.60
2008,12,29,11,32,19.30
2008,12,29,11,33,15.80
2008,12,29,11,34,12.20
2008,12,29,11,35,25.30
2008,12,29,11,36,20.40
2008,12,29,11,37,23.40
2008,12,29,11,38,20.20
2008,12,29,11,39,19.60
2008,12,29,11,40,18.80
2008,12,29,11,41,16.70
2008,12,29,11,42,24.10
2008,12,29,11,43,18.00
2008,12,29,11,44,19.40
2008,12,29,11,45,33.80
2008,12,29,11,46,27.10
2008,12,29,11,47,31.00
2008,12,29,11,48,26.80
2008,12,29,11,49,27.00
2008,12,29,11,50,20.50
2008,12,29,11,51,20.80
2008,12,29,11,52,23.70
2008,12,29,11,53,25.30
2008,12,29,11,54,23.00
2008,12,29,11,55,25.70
2008,12,29,11,56,26.60
2008,12,29,11,57,12.40
2008,12,29,11,58,19.60
2008,12,29,12,02,26.20
2008,12,29,12,03,35.30
2008,12,29,12,04,37.60
2008,12,29,12,05,45.70
2008,12,29,12,06,37.10
2008,12,29,12,07,35.90
2008,12,29,12,08,40.10
2008,12,29,12,09,23.10
2008,12,29,12,10,35.80
2008,12,29,12,11,30.70
2008,12,29,12,12,33.90
2008,12,29,12,13,39.90
2008,12,29,12,14,36.10
2008,12,29,12,15,33.60
2008,12,29,12,16,30.70
2008,12,29,12,17,29.40
2008,12,29,12,18,18.50
2008,12,29,12,19,35.80
2008,12,29,12,20,39.10
2008,12,29,12,21,35.70
2008,12,29,12,22,29.30
2008,12,29,12,23,26.30
2008,12,29,12,24,33.90
2008,12,29,12,25,22.40
2008,12,29,12,26,21.80
2008,12,29,12,27,42.00
2008,12,29,12,28,27.80
2008,12,29,12,29,28.20
2008,12,29,12,30,36.20
2008,12,29,12,31,31.30
2008,12,29,12,32,30.40
2008,12,29,13,34,16.50
2008,12,29,13,35,21.60
2008,12,29,13,36,21.60
2008,12,29,13,37,19.10
2008,12,29,13,38,13.20
2008,12,29,13,39,18.60
2008,12,29,13,40,22.80
2008,12,29,13,41,11.90
2008,12,29,13,42,14.60
2008,12,29,13,43,12.90
2008,12,29,13,44,13.40
2008,12,29,13,45,14.60
2008,12,29,13,46,20.70
2008,12,29,13,47,15.50
2008,12,29,13,48,12.90
2008,12,29,13,49,20.40
2008,12,29,13,50,14.90
2008,12,29,13,51,20.00
2008,12,29,13,52,18.70
2008,12,29,13,53,15.00
2008,12,29,13,54,22.10
2008,12,29,13,55,18.20
2008,12,29,13,56,20.30
2008,12,29,13,57,17.30
2008,12,29,13,58,20.00
2008,12,29,13,59,17.50
2008,12,29,14,00,11.90
2008,12,29,14,01,11.90
2008,12,29,14,02,21.30
2008,12,29,14,03,20.60
2008,12,29,14,04,26.40
2008,12,29,14,05,24.70
2008,12,29,14,06,28.00
2008,12,29,14,07,18.80
2008,12,29,14,08,19.80
2008,12,29,14,09,26.20
2008,12,29,14,10,17.50
2008,12,29,14,11,26.20
2008,12,29,14,12,22.50
2008,12,29,14,13,17.60
2008,12,29,14,14,13.30
2008,12,29,14,15,10.80
2008,12,29,14,16,6.50
2008,12,29,14,17,8.70
2008,12,29,14,18,6.90
2008,12,29,14,19,6.20
2008,12,29,14,20,9.50
2008,12,29,14,21,15.50
2008,12,29,14,22,9.80
2008,12,29,14,23,5.90
2008,12,29,14,24,8.80
2008,12,29,14,25,7.50
2008,12,29,14,26,13.00
2008,12,29,14,27,6.40
2008,12,29,14,28,7.90
2008,12,29,14,29,14.30
2008,12,29,14,30,15.00
2008,12,29,14,31,6.60
2008,12,29,14,32,6.70
2008,12,29,14,33,12.80
2008,12,29,14,34,9.00
2008,12,29,14,35,7.20
2008,12,29,14,36,7.50
2008,12,29,14,37,1.50
2008,12,29,14,38,5.60
2008,12,29,14,39,8.20
2008,12,29,14,40,8.10
2008,12,29,14,41,1.60
2008,12,29,14,42,13.00
2008,12,29,14,43,12.70
2008,12,29,14,44,16.30
2008,12,29,14,45,11.00
2008,12,29,14,46,7.30
2008,12,29,14,47,9.90
2008,12,29,14,48,9.60
2008,12,29,14,49,3.60
2008,12,29,14,50,6.00
2008,12,29,14,51,12.60
2008,12,29,14,52,16.90
2008,12,29,14,53,11.50
2008,12,29,14,54,12.10
2008,12,29,14,55,12.30
2008,12,29,14,56,14.30
2008,12,29,14,57,17.30
2008,12,29,14,58,7.60
2008,12,29,14,59,7.00
2008,12,29,15,00,9.40
2008,12,29,15,01,9.30
2008,12,29,15,02,18.10
2008,12,29,15,03,15.40
2008,12,29,15,04,16.90
2008,12,29,15,05,12.50
2008,12,29,15,06,17.10
2008,12,29,15,07,11.30
2008,12,29,15,08,8.90
2008,12,29,15,09,7.40
2008,12,29,15,10,6.60
2008,12,29,15,11,5.10
2008,12,29,15,12,7.60
2008,12,29,15,13,9.90
2008,12,29,15,14,10.50
2008,12,29,15,15,8.50
2008,12,29,15,16,8.90
2008,12,29,15,17,9.70
2008,12,29,15,18,3.10
2008,12,29,15,19,4.20
2008,12,29,15,20,9.90
2008,12,29,15,21,4.60
2008,12,29,15,22,8.60
2008,12,29,15,23,4.30
2008,12,29,15,24,8.60
2008,12,29,15,25,5.90
2008,12,29,15,26,5.60
2008,12,29,15,27,2.90
2008,12,29,15,28,9.00
2008,12,29,15,29,4.30
2008,12,29,15,30,10.50
2008,12,29,15,31,22.00
2008,12,29,15,32,12.10
2008,12,29,15,33,11.60
2008,12,29,15,34,17.50
2008,12,29,15,35,15.20
2008,12,29,15,36,14.00
2008,12,29,15,37,7.60
2008,12,29,15,38,6.10
2008,12,29,15,39,4.60
2008,12,29,15,40,5.70
2008,12,29,15,41,9.60
2008,12,29,15,42,6.80
2008,12,29,15,43,8.10
2008,12,29,15,44,10.20
2008,12,29,15,45,7.20
2008,12,29,15,46,6.00
2008,12,29,15,47,9.00
2008,12,29,15,48,6.50
2008,12,29,15,49,7.20
2008,12,29,15,50,7.60
2008,12,29,15,51,9.30
2008,12,29,15,52,14.10
2008,12,29,15,53,12.80
2008,12,29,15,54,11.80
2008,12,29,15,55,12.20
2008,12,29,15,56,9.80
2008,12,29,15,57,13.90
2008,12,29,15,58,9.10
2008,12,29,15,59,13.30
2008,12,29,16,00,17.50
2008,12,29,16,01,21.80
2008,12,29,16,02,15.90
2008,12,29,16,03,17.00
2008,12,29,16,04,12.60
2008,12,29,16,05,15.90
2008,12,29,16,06,14.40
2008,12,29,16,07,13.60
2008,12,29,16,08,13.30
2008,12,29,16,09,8.10
2008,12,29,16,10,10.00
2008,12,29,16,11,12.30
2008,12,29,16,12,14.10
2008,12,29,16,13,17.00
2008,12,29,16,14,12.30
2008,12,29,16,15,12.50
2008,12,29,16,16,17.20
2008,12,29,16,17,22.30
2008,12,29,16,18,19.50
2008,12,29,16,19,23.50
2008,12,29,16,20,17.90
2008,12,29,16,21,16.90
2008,12,29,16,22,13.80
2008,12,29,16,23,12.00
2008,12,29,16,24,9.10
2008,12,29,16,25,9.20
2008,12,29,16,26,11.30
2008,12,29,16,27,14.80
2008,12,29,16,28,10.60
2008,12,29,16,29,12.00
2008,12,29,16,30,14.50
2008,12,29,16,31,8.60
2008,12,29,16,32,13.00
2008,12,29,16,33,12.20
2008,12,29,16,34,10.80
2008,12,29,16,35,9.50
2008,12,29,16,36,12.90
2008,12,29,16,37,12.40
2008,12,29,16,38,7.50
2008,12,29,16,39,5.20
2008,12,29,16,40,11.10
2008,12,29,16,41,10.00
2008,12,29,16,42,7.60
2008,12,29,16,43,7.70
2008,12,29,16,44,12.90
2008,12,29,16,45,17.10
2008,12,29,16,46,8.20
2008,12,29,16,47,8.30
2008,12,29,16,48,7.40
2008,12,29,16,49,9.70
2008,12,29,16,50,6.60
2008,12,29,16,51,14.90
2008,12,29,16,52,9.10
2008,12,29,16,53,7.20
2008,12,29,16,54,7.30
2008,12,29,16,55,5.60
2008,12,29,16,56,7.70
2008,12,29,16,57,5.80
2008,12,29,16,58,5.40
2008,12,29,16,59,2.40
2008,12,29,17,00,4.60
2008,12,29,17,01,2.40
2008,12,29,17,02,5.60
2008,12,29,17,03,7.20
2008,12,29,17,04,14.00
2008,12,29,17,05,13.80
2008,12,29,17,06,12.00
2008,12,29,17,07,10.20
2008,12,29,17,08,15.00
2008,12,29,17,09,15.90
2008,12,29,17,10,14.90
2008,12,29,17,11,20.70
2008,12,29,17,12,12.00
2008,12,29,17,13,19.60
2008,12,29,17,14,22.70
2008,12,29,17,15,14.40
2008,12,29,17,16,13.50
2008,12,29,17,17,22.50
2008,12,29,17,18,23.30
2008,12,29,17,19,16.90
2008,12,29,17,20,10.00
2008,12,29,17,21,10.50
2008,12,29,17,22,11.60
2008,12,29,17,23,14.20
2008,12,29,17,24,15.60
2008,12,29,17,25,12.20
2008,12,29,17,26,12.90
2008,12,29,17,27,9.20
2008,12,29,17,28,12.80
2008,12,29,17,29,26.30
2008,12,29,17,30,13.60
2008,12,29,17,31,11.30
2008,12,29,17,32,7.90
2008,12,29,17,33,9.50
2008,12,29,17,34,14.10
2008,12,29,17,35,8.30
2008,12,29,17,36,7.80
2008,12,29,17,37,7.90
2008,12,29,17,38,8.40
2008,12,29,17,39,9.70
2008,12,29,17,40,7.20
2008,12,29,17,41,8.10
2008,12,29,17,42,7.60
2008,12,29,17,43,6.90
2008,12,29,17,44,10.40
2008,12,29,17,45,9.30
2008,12,29,17,46,8.20
2008,12,29,17,47,8.00
2008,12,29,17,48,8.40
2008,12,29,17,49,9.00
2008,12,29,17,50,9.40
2008,12,29,17,51,10.10
2008,12,29,17,52,4.10
2008,12,29,17,53,6.70
2008,12,29,17,54,8.60
2008,12,29,17,55,11.00
2008,12,29,17,56,6.00
2008,12,29,17,57,8.40
2008,12,29,17,58,13.20
2008,12,29,17,59,9.40
2008,12,29,18,00,7.00
2008,12,29,18,01,8.10
2008,12,29,18,02,15.90
2008,12,29,18,03,13.20
2008,12,29,18,04,9.50
2008,12,29,18,05,5.40
2008,12,29,18,06,10.50
2008,12,29,18,07,10.10
2008,12,29,18,08,7.00
2008,12,29,18,09,7.10
2008,12,29,18,10,9.10
2008,12,29,18,11,7.40
2008,12,29,18,12,2.50
2008,12,29,18,13,4.80
2008,12,29,18,14,13.00
2008,12,29,18,15,7.80
2008,12,29,18,16,3.50
2008,12,29,18,17,10.30
2008,12,29,18,18,12.30
2008,12,29,18,19,16.40
2008,12,29,18,20,10.00
2008,12,29,18,21,12.90
2008,12,29,18,22,10.50
2008,12,29,18,23,12.40
2008,12,29,18,24,9.60
2008,12,29,18,25,7.90
2008,12,29,18,26,6.20
2008,12,29,18,27,6.40
2008,12,29,18,28,5.90
2008,12,29,18,29,9.70
2008,12,29,18,30,8.10
2008,12,29,18,31,8.80
2008,12,29,18,32,6.10
2008,12,29,18,33,7.00
2008,12,29,18,34,10.50
2008,12,29,18,35,9.20
2008,12,29,18,36,7.20
2008,12,29,18,37,6.00
2008,12,29,18,38,7.20
2008,12,29,18,39,3.90
2008,12,29,18,40,6.70
2008,12,29,18,41,3.90
2008,12,29,18,42,4.30
2008,12,29,18,43,6.90
2008,12,29,18,44,7.20
2008,12,29,18,45,7.20
2008,12,29,18,46,3.30
2008,12,29,18,47,4.10
2008,12,29,18,48,2.80
2008,12,29,18,49,10.40
2008,12,29,18,50,11.40
2008,12,29,18,51,7.00
2008,12,29,18,52,7.00
2008,12,29,18,53,8.60
2008,12,29,18,54,9.80
2008,12,29,18,55,11.90
2008,12,29,18,56,8.70
2008,12,29,18,57,6.40
2008,12,29,18,58,6.00
2008,12,29,18,59,7.40
2008,12,29,19,00,4.80